"Pseudo-MPEC" for P115CdN

Created 2020 Sep 16 23:07:15 UT using Find_Orb

Click here for an explanation of pseudo-MPECs

 
 Astrometry: 
     P115CdN  C2020 09 12+46W)FVATbr,B%r%?N%$`k*5om8kLWrWE.iO.EJb-BIP!uUAI4ycF51
     P115CdN  C2020 09 12%)StQk?#I75Hy$w-IGJ0DM`yHo@K*t5cWh^.Y#f\o!+nY\V\^l\SF51
     P115CdN  C2020 09 12-[!VL`P;J-]bpq?\S478]pu9R3?xoL+P'b,-\ID,h:#bv1v3IY]xF51
     P115CdN  C2020 09 12L51kgqsWx5c,7UD;`^sH4*y!-2^`_sqAstrometry*:R3cL,:;2JF51
     P115CdN KC2020 09 141rb*uvhtQO,55kbav#9x6VR9(9-/.?3?kP#fE`XOGm8VYhYL@I(sH21
     P115CdN KC2020 09 141f#ttBanh7KTKoPC.Sxw2Jredacted;q6SD,00l_,SStEX)=)xm)H21
     P115CdN KC2020 09 14njDTSVXKclickFeIS)ZcO?I)LD(*'E4YlqM\M)'77`]Ke6/ES^#AH21
     P115CdN  C2020 09 14D!IO(H=a:hhwKWCbn]$R/jBriPVb-x,.G5jp,+duMa7herexs4agF51
     P115CdN  C2020 09 14r?s[/pSSF/;-a!oc7_YCDwrq9co2x0yJPM_9CllCUaP=cET^9w(6F51
     P115CdN  C2020 09 14JSO3Hae3;ichNe@I.P0^mM]s'AfY#)V,XG\kK.*1ItZWJD;qrRDSF51
     P115CdN  C2020 09 14s02Pgo`sf?tHd7ssuM^ErprxhJBvx-.Nt$iGjbAlLXeyTm7So/UOF51
     P115CdN ^C2020 09 14.57156002 41 20.006+00 44 20.80   ~9EK7 21.09GVNEOCP568
     P115CdN ^C2020 09 14.57250802 41 20.053+00 44 20.79   ~9EK7 21.12GVNEOCP568
     P115CdN ^C2020 09 14.57345902 41 20.103+00 44 20.81   ~9EK7 21.06GVNEOCP568
     P115CdN  C2020 09 16'MHRJD*W-2+e!RUcs!6,fi:3'm\6H2pP9?\==fNJxY5TeD=_E-EfF51
     P115CdN  C2020 09 16w_yXR6HH?*;^@YU`a_A;m`:0E_D%o)%M[ou6=:t2R;E.!-h:(]-hF51
     P115CdN  C2020 09 16wr4]62b+AXQ6-g-HbtTW?2L*forMexplanationTh4Ce,1BC?'9:F51

Station data:
(568) Mauna Kea  (N19.826116 W155.472200)  US/Hawaii.
(F51) Pan-STARRS 1, Haleakala  (N20.707235 W156.255910)  US/Hawaii.
   Observers N. Primak, A. Schultz, S. Watters, J. Thiel, T. Goggia. Measurer
   PS1 Science Consortium. 1.8-m Ritchey-Chrétien + CCD.
(H21) Astronomical Research Observatory, Westfield  (N39.483057 W87.968270)
   US/Illinois. 0.76-m f/3.0 astrograph + CCD.

Orbital elements:  P115CdN
   Perihelion 2020 Dec 7.744594 +/- 8.75 TT = 17:52:12 (JD 2459191.244594)
Epoch 2020 Sep 16.0 TT = JDT 2459108.5   Earth MOID: 0.4631   Ma: 0.0697
M 336.83958075 +/- 4.7              (J2000 ecliptic)          AutoNEOCP
n   0.27990250 +/- 0.0352           Peri.  346.08185 +/- 9
a   2.31454088 +/- 0.194            Node    76.71195 +/- 2.8
e   0.3740645 +/- 0.0319            Incl.    7.27572 +/- 0.042
P   3.52                   H 20.0   G  0.15   U 10.5  
q 1.44875327 +/- 0.056    Q 3.18032849 +/- 0.401
From 17 observations 2020 Sept. 12-16; mean residual 0".07
Residuals in arcseconds: 
200912 F51  .09+  .00     200914 H21  .05+  .14-    200914 568  .04-  .00     
200912 F51  .00   .01-    200914 F51  .03-  .00     200914 568  .02-  .01+    
200912 F51  .04-  .04+    200914 F51  .06-  .03-    200916 F51  .08+  .07+    
200912 F51  .07-  .18+    200914 F51  .03-  .07-    200916 F51  .02-  .04+    
200914 H21  .20+  .08-    200914 F51  .08-  .03+    200916 F51  .05-  .03+    
200914 H21  .01-  .05-    200914 568  .02-  .02+    

Ephemerides (geocentric):
Date (UTC) HH   RA              Dec         delta   r     elong  mag " sig PA
---- -- -- --  -------------   -----------  ------ ------ -----  --- ---- ---
2020 09 16 23  02 43 27.294   +00 44 40.21  .73919 1.6077 133.8 21.6 .152  80
2020 09 17 00  02 43 29.423   +00 44 40.31  .73885 1.6075 133.8 21.6 .152  83
2020 09 17 01  02 43 31.549   +00 44 40.41  .73850 1.6074 133.8 21.6 .153  86
2020 09 17 02  02 43 33.671   +00 44 40.50  .73816 1.6072 133.9 21.6 .154  90
2020 09 17 03  02 43 35.791   +00 44 40.59  .73782 1.6071 133.9 21.6 .155  93
2020 09 17 04  02 43 37.907   +00 44 40.67  .73748 1.6069 133.9 21.6 .157  96
2020 09 17 05  02 43 40.020   +00 44 40.75  .73713 1.6068 133.9 21.6 .159 100
2020 09 17 06  02 43 42.130   +00 44 40.82  .73679 1.6066 134.0 21.6 .162 103
2020 09 17 07  02 43 44.236   +00 44 40.89  .73645 1.6065 134.0 21.6 .165 106
2020 09 17 08  02 43 46.339   +00 44 40.95  .73611 1.6063 134.0 21.6 .169 109
2020 09 17 09  02 43 48.439   +00 44 41.01  .73576 1.6062 134.1 21.6 .173 112
2020 09 17 10  02 43 50.536   +00 44 41.06  .73542 1.6061 134.1 21.6 .178 115
2020 09 17 11  02 43 52.629   +00 44 41.11  .73508 1.6059 134.1 21.6 .183 118
2020 09 17 12  02 43 54.720   +00 44 41.15  .73474 1.6058 134.1 21.6 .188 121
2020 09 17 13  02 43 56.807   +00 44 41.19  .73440 1.6056 134.2 21.6 .194 123
2020 09 17 14  02 43 58.890   +00 44 41.22  .73406 1.6055 134.2 21.6 .200 126
2020 09 17 15  02 44 00.971   +00 44 41.24  .73372 1.6053 134.2 21.6 .207 128
2020 09 17 16  02 44 03.048   +00 44 41.26  .73338 1.6052 134.3 21.6 .214 131
2020 09 17 17  02 44 05.122   +00 44 41.28  .73304 1.6050 134.3 21.6 .221 133
2020 09 17 18  02 44 07.193   +00 44 41.29  .73270 1.6049 134.3 21.6 .229 135
2020 09 17 19  02 44 09.260   +00 44 41.30  .73236 1.6047 134.4 21.6 .237 137
2020 09 17 20  02 44 11.325   +00 44 41.30  .73202 1.6046 134.4 21.6 .245 139
2020 09 17 21  02 44 13.386   +00 44 41.30  .73168 1.6045 134.4 21.6 .253 141
2020 09 17 22  02 44 15.443   +00 44 41.29  .73134 1.6043 134.4 21.6 .262 143
2020 09 17 23  02 44 17.498   +00 44 41.28  .73100 1.6042 134.5 21.6 .271 144
2020 09 18 00  02 44 19.549   +00 44 41.26  .73066 1.6040 134.5 21.6 .280 146
2020 09 18 01  02 44 21.597   +00 44 41.24  .73032 1.6039 134.5 21.6 .290 147
2020 09 18 02  02 44 23.641   +00 44 41.21  .72998 1.6037 134.6 21.6 .300 149
2020 09 18 03  02 44 25.682   +00 44 41.18  .72964 1.6036 134.6 21.6 .310 150
2020 09 18 04  02 44 27.720   +00 44 41.15  .72931 1.6034 134.6 21.6 .320 152
2020 09 18 05  02 44 29.755   +00 44 41.11  .72897 1.6033 134.6 21.6 .330 153
2020 09 18 06  02 44 31.787   +00 44 41.06  .72863 1.6031 134.7 21.6 .341 154
2020 09 18 07  02 44 33.815   +00 44 41.01  .72829 1.6030 134.7 21.6 .352 155
2020 09 18 08  02 44 35.840   +00 44 40.96  .72796 1.6029 134.7 21.6 .363 157
2020 09 18 09  02 44 37.861   +00 44 40.90  .72762 1.6027 134.8 21.6 .374 158
2020 09 18 10  02 44 39.879   +00 44 40.84  .72728 1.6026 134.8 21.6 .386 159
2020 09 18 11  02 44 41.894   +00 44 40.77  .72695 1.6024 134.8 21.5 .398 160
2020 09 18 12  02 44 43.906   +00 44 40.70  .72661 1.6023 134.9 21.5 .410 161
2020 09 18 13  02 44 45.914   +00 44 40.62  .72627 1.6021 134.9 21.5 .422 162
2020 09 18 14  02 44 47.919   +00 44 40.54  .72594 1.6020 134.9 21.5 .434 163
2020 09 18 15  02 44 49.921   +00 44 40.46  .72560 1.6018 134.9 21.5 .447 164
2020 09 18 16  02 44 51.919   +00 44 40.37  .72526 1.6017 135.0 21.5 .459 165
2020 09 18 17  02 44 53.914   +00 44 40.28  .72493 1.6016 135.0 21.5 .472 166
2020 09 18 18  02 44 55.906   +00 44 40.18  .72459 1.6014 135.0 21.5 .485 166
2020 09 18 19  02 44 57.895   +00 44 40.08  .72426 1.6013 135.1 21.5 .499 167
2020 09 18 20  02 44 59.880   +00 44 39.97  .72392 1.6011 135.1 21.5 .512 168
2020 09 18 21  02 45 01.861   +00 44 39.86  .72359 1.6010 135.1 21.5 .526 169
2020 09 18 22  02 45 03.840   +00 44 39.75  .72325 1.6008 135.2 21.5 .540 170